星链-3400 (STARLINK-3400 )

导读

STARLINK-3400是美国SpaceX公司星链低轨卫星互联网星座的成员,于2022年1月19日发射入轨,运行在近地轨道。星链星座旨在为全球提供高速低延迟卫星互联网服务,该卫星搭载了先进相控阵天线与氪推进系统,可自主规避空间碰撞,截至2026年,星链已有超9500颗卫星在轨,持续推动全球卫星互联网基础设施建设。

基本信息
目录编号:
51128
目录名称:
STARLINK-3400
国际标识:
2022-005AA
轨道中心:
EARTH
卫星名称:
星链-3400
卫星全名:
星链-3400 (STARLINK-3400 )
卫星状态:
在轨 (已飞行1610 天)
发射日期:
2022-01-19 UTC
国别 :
美国 (US)
星等 :
--
轨道信息
数据来源 国际轨道数据 AOE轨道数据
星历时间 2026-06-17T18:13:47+0800
9小时前
查看轨道信息
2026-06-15T07:00:00+0800
2天前
查看轨道信息
半长轴 6917.912km 6917.892km
偏心率 0.0000826 0.0000826
轨道倾角 53.159° 53.159°
近地点辐角 71.088° 39.892°
升交点赤经 211.289° 222.387°
平近点角 289.021° 227.730°
近地点 539.203km 539.183km
远地点 540.347km 540.327km
周期 95.438分钟 95.438分钟
每日圈数 15.088299 15.088364
详细信息
固有亮度:
5
最大亮度:
2.5
卫星平台:
Starlink v1.5
覆盖范围:
全球
运营商:
太空探索技术公司
运营商所在国:
美国
制造商(研发单位):
太空探索技术公司
制造商所在国:
美国
使用方式:
暂无
卫星简介
星链(Starlink)计划是由太空探索技术公司(SpaceX)提出的一个巨型低轨卫星互联网星座项目,计划在2019年至2024年间在太空搭建由约1.2万颗卫星组成的“星链”网络,其中1584颗将部署在地球上空550千米处的近地轨道,并从2020年开始工作。该卫星仍在工作。
2D轨道图
3D轨道图
轨道高度分析图
轨道倾角分析图
轨道综合分析图
查看轨道综合分析图